This is the latest recevied weather packets stored in our database for station/object N7WSS. If no packets are shown the sender has not sent any weather packets the latest 10 day(s).
| Time | Temp. | Humidity | Pressure | Rain* | Wind** | Luminosity | Snow |
|---|---|---|---|---|---|---|---|
| 1788091052 | 26.67° C | 56% | 1015.1 hPa | 0 mm | - | - | - |
| 1788090747 | 26.67° C | 56% | 1015.2 hPa | 0 mm | - | - | - |
| 1788090444 | 26.67° C | 55% | 1015 hPa | 0 mm | - | - | - |
| 1788090144 | 26.67° C | 55% | 1014.9 hPa | 0 mm | - | - | - |
| 1788089840 | 27.22° C | 54% | 1015 hPa | 0 mm | - | - | - |
| 1788089534 | 27.22° C | 54% | 1015.1 hPa | 0 mm | - | - | - |
| 1788089230 | 27.22° C | 53% | 1015 hPa | 0 mm | - | - | - |
| 1788088926 | 27.22° C | 52% | 1015.2 hPa | 0 mm | - | - | - |
| 1788088621 | 27.22° C | 53% | 1015 hPa | 0 mm | - | - | - |
| 1788088317 | 27.78° C | 52% | 1014.9 hPa | 0 mm | - | - | - |
| 1788088017 | 27.78° C | 49% | 1015 hPa | 0 mm | - | - | - |
| 1788087713 | 27.78° C | 49% | 1015.1 hPa | 0 mm | - | - | - |
| 1788087413 | 27.78° C | 48% | 1015.1 hPa | 0 mm | - | - | - |
| 1788087108 | 27.78° C | 48% | 1015 hPa | 0 mm | - | - | - |
| 1788086805 | 27.78° C | 47% | 1014.7 hPa | 0 mm | - | - | - |
| 1788086502 | 27.78° C | 48% | 1014.8 hPa | 0 mm | - | - | - |
| 1788086200 | 28.33° C | 48% | 1014.8 hPa | 0 mm | - | - | - |
| 1788085896 | 28.33° C | 47% | 1014.7 hPa | 0 mm | - | - | - |
| 1788085595 | 28.33° C | 45% | 1014.9 hPa | 0 mm | - | - | - |
| 1788085291 | 27.78° C | 48% | 1014.9 hPa | 0 mm | - | - | - |
| 1788084987 | 27.78° C | 48% | 1014.7 hPa | 0 mm | - | - | - |
| 1788084686 | 27.22° C | 48% | 1014.8 hPa | 0 mm | - | - | - |
| 1788084381 | 27.22° C | 48% | 1014.4 hPa | 0 mm | - | - | - |
| 1788084081 | 27.22° C | 49% | 1014.3 hPa | 0 mm | - | - | - |
| 1788083780 | 27.22° C | 49% | 1014 hPa | 0 mm | - | - | - |
* Rain latest hour (hover to see other rain measurements)
** Current wind speed in m/s (hover to see current wind gust speed)